TimeEST,TemperatureF,Dew PointF,Humidity,Sea Level PressureIn,VisibilityMPH,Wind Direction,Wind SpeedMPH,Gust SpeedMPH,PrecipitationIn,Events,Conditions,WindDirDegrees,DateUTC
12:23 AM,62.6,60.8,94,30.08,5.0,SW,4.6,-,N/A,,Mostly Cloudy,220,2012-12-09 05:23:00
12:31 AM,62.6,60.8,94,30.07,5.0,South,5.8,-,N/A,,Mostly Cloudy,190,2012-12-09 05:31:00
12:53 AM,62.1,61.0,96,30.07,5.0,SW,6.9,-,N/A,,Overcast,220,2012-12-09 05:53:00
1:53 AM,63.0,61.0,93,30.07,7.0,SSW,3.5,-,N/A,,Overcast,210,2012-12-09 06:53:00
2:22 AM,62.6,60.8,94,30.07,9.0,SW,5.8,-,N/A,,Overcast,220,2012-12-09 07:22:00
2:45 AM,62.6,60.8,94,30.07,7.0,South,5.8,-,N/A,,Overcast,180,2012-12-09 07:45:00
2:53 AM,62.1,61.0,96,30.07,6.0,South,4.6,-,N/A,,Overcast,180,2012-12-09 07:53:00
3:53 AM,62.1,61.0,96,30.08,4.0,SSW,3.5,-,N/A,,Overcast,210,2012-12-09 08:53:00
4:28 AM,62.6,60.8,94,30.08,2.0,South,3.5,-,N/A,,Overcast,190,2012-12-09 09:28:00
4:43 AM,62.6,60.8,94,30.08,2.5,Calm,Calm,-,N/A,,Overcast,0,2012-12-09 09:43:00
4:53 AM,62.1,61.0,96,30.08,2.5,South,3.5,-,N/A,,Overcast,170,2012-12-09 09:53:00
5:39 AM,62.6,60.8,94,30.08,3.0,Calm,Calm,-,N/A,,Overcast,0,2012-12-09 10:39:00
5:53 AM,62.1,61.0,96,30.09,3.0,SSE,4.6,-,N/A,,Overcast,160,2012-12-09 10:53:00
6:01 AM,62.6,60.8,94,30.09,3.0,SSE,3.5,-,N/A,,Overcast,160,2012-12-09 11:01:00
6:12 AM,62.6,60.8,94,30.09,4.0,SSE,4.6,-,N/A,,Overcast,160,2012-12-09 11:12:00
6:23 AM,60.8,60.8,100,30.10,6.0,South,3.5,-,N/A,,Overcast,170,2012-12-09 11:23:00
7:53 AM,61.0,60.1,97,30.12,2.0,South,3.5,-,N/A,,Overcast,170,2012-12-09 12:53:00
8:05 AM,60.8,60.8,100,30.13,2.0,South,5.8,-,N/A,,Overcast,180,2012-12-09 13:05:00
8:53 AM,62.1,60.1,93,30.13,5.0,South,3.5,-,N/A,,Overcast,180,2012-12-09 13:53:00
9:53 AM,62.1,59.0,90,30.14,6.0,Calm,Calm,-,N/A,,Overcast,0,2012-12-09 14:53:00
10:53 AM,63.0,59.0,87,30.14,10.0,Calm,Calm,-,N/A,,Overcast,0,2012-12-09 15:53:00
11:53 AM,64.9,59.0,81,30.13,10.0,Calm,Calm,-,N/A,,Overcast,0,2012-12-09 16:53:00
12:53 PM,66.0,59.0,78,30.09,10.0,SSW,5.8,-,N/A,,Overcast,200,2012-12-09 17:53:00
1:00 PM,66.2,59.0,78,30.09,10.0,South,5.8,-,N/A,,Overcast,190,2012-12-09 18:00:00
1:53 PM,66.9,59.0,76,30.07,10.0,WSW,3.5,-,N/A,,Overcast,250,2012-12-09 18:53:00
2:53 PM,68.0,57.9,70,30.06,10.0,Variable,3.5,-,N/A,,Overcast,0,2012-12-09 19:53:00
3:17 PM,69.8,59.0,68,30.06,10.0,South,4.6,-,N/A,,Scattered Clouds,190,2012-12-09 20:17:00
3:53 PM,70.0,57.9,65,30.05,10.0,South,3.5,-,N/A,,Clear,170,2012-12-09 20:53:00
4:53 PM,69.1,57.9,68,30.05,10.0,Calm,Calm,-,N/A,,Clear,0,2012-12-09 21:53:00
5:53 PM,64.0,57.9,80,30.06,10.0,Calm,Calm,-,N/A,,Clear,0,2012-12-09 22:53:00
6:53 PM,61.0,57.9,90,30.06,10.0,Calm,Calm,-,N/A,,Clear,0,2012-12-09 23:53:00
7:53 PM,60.1,57.0,90,30.05,10.0,Calm,Calm,-,N/A,,Clear,0,2012-12-10 00:53:00
8:53 PM,59.0,57.0,93,30.05,10.0,Calm,Calm,-,N/A,,Clear,0,2012-12-10 01:53:00
9:53 PM,57.0,55.9,96,30.05,8.0,Calm,Calm,-,N/A,,Clear,0,2012-12-10 02:53:00
10:53 PM,57.0,55.9,96,30.04,9.0,Calm,Calm,-,N/A,,Clear,0,2012-12-10 03:53:00
11:53 PM,54.0,53.1,97,30.02,8.0,Calm,Calm,-,N/A,,Clear,0,2012-12-10 04:53:00